Погода в Максиме Горьком

Россия / Республика Башкортостан     54°17′58″N   56°47′29″E
темп.,
°C
ветер,
м/с
пор.,
м/с
влажн.,
%
обл.,
%
осадки,
мм/ч
давл.,
гПа
погр.,
м
16 апреля, пт
пт1623:00+10ююв22773 0.0 102214
02:00+9юв22834 0.0 102110
05:00+7юв218263 0.0 102110
08:00+9вюв117486 0.0 102121
11:00+16св114944 0.0 1020378
14:00+19ссз233885 0.0 10201368
17:00+19ссз433974 0.0 10201721
20:00+14с346934 0.0 102062
17 апреля, сб
сб1723:00+10ссв22855 0.0 102121
02:00+9юв00896 0.0 102211
05:00+8ююв119089 0.0 102312
08:00+9ююв128476 0.0 1023117
11:00+12зсз217296 0.0 1024534
14:00+13зсз226634 0.0 1023699
17:00+15с335921 0.0 10221106
20:00+11ссв22674 0.0 102227
18 апреля, вс
вс1823:00+7с24710 0.0 102376
02:00+5ссв22750 0.0 102325
05:00+3ссв22770 0.0 102321
08:00+5ссв24665 0.0 1023168
11:00+10с45495 0.0 10231087
14:00+12с45425 0.0 10231616
17:00+12ссв654380 0.0 10231669
20:00+7св596096 0.0 1024538
19 апреля, пн
пн1923:00+5вюв51164100 0.0 1026728
02:00+3вюв71249100 0.0 1028743
05:00+2вюв71252100 0.0 1030731
08:00+2вюв61144100 0.0 1032834
11:00+4вюв6736100 0.0 10321173
14:00+6вюв5632100 0.0 10321759
17:00+7вюв553154 0.0 10321997
20:00+4вюв49370 0.0 1034417
20 апреля, вт
вт2023:00+1вюв512400 0.0 1036597
02:000вюв410440 0.0 1037475
05:00−1вюв49450 0.0 1037462
08:000вюв58360 0.0 1038662
11:00+5вюв34260 0.0 10371209
14:00+9в24220 0.0 10351539
17:00+10в12200 0.0 10331629
20:00+6св22380 0.0 103316